Time,TemperatureF,DewpointF,PressureIn,WindDirection,WindDirectionDegrees,WindSpeedMPH,WindSpeedGustMPH,Humidity,HourlyPrecipIn,Conditions,Clouds,dailyrainin,SoftwareType,DateUTC
2013-06-17 00:01:00,64.6,61.9,29.95,ESE,120,0.0,0.0,91,0.00,,,0.00,meteohub,2013-06-17 04:01:00,
2013-06-17 00:07:00,64.6,62.2,29.95,ESE,120,0.0,0.0,92,0.00,,,0.00,meteohub,2013-06-17 04:07:00,
2013-06-17 00:12:00,64.6,62.2,29.95,ESE,120,0.0,0.0,92,0.00,,,0.00,meteohub,2013-06-17 04:12:00,
2013-06-17 00:17:00,64.4,62.1,29.95,ESE,120,0.0,0.0,92,0.00,,,0.00,meteohub,2013-06-17 04:17:00,
2013-06-17 00:22:00,64.2,61.9,29.95,ESE,120,0.0,0.0,92,0.00,,,0.00,meteohub,2013-06-17 04:22:00,
2013-06-17 00:27:00,64.2,61.9,29.95,ESE,120,0.0,0.0,92,0.00,,,0.00,meteohub,2013-06-17 04:27:00,
2013-06-17 00:32:00,64.2,61.9,29.95,ESE,120,0.0,0.0,92,0.00,,,0.00,meteohub,2013-06-17 04:32:00,
2013-06-17 00:37:00,64.2,61.9,29.95,ESE,120,0.0,0.0,92,0.00,,,0.00,meteohub,2013-06-17 04:37:00,
2013-06-17 00:41:00,64.2,61.9,29.95,ESE,120,0.0,0.0,92,0.00,,,0.00,meteohub,2013-06-17 04:41:00,
2013-06-17 00:47:00,64.2,61.9,29.95,ESE,120,0.0,0.0,92,0.00,,,0.00,meteohub,2013-06-17 04:47:00,
2013-06-17 00:52:00,64.2,61.9,29.95,ESE,120,0.0,0.0,92,0.00,,,0.00,meteohub,2013-06-17 04:52:00,
2013-06-17 00:57:00,64.0,61.7,29.94,WNW,294,0.0,0.0,92,0.00,,,0.00,meteohub,2013-06-17 04:57:00,
2013-06-17 01:02:00,64.2,61.9,29.94,WNW,294,0.0,0.0,92,0.00,,,0.00,meteohub,2013-06-17 05:02:00,
2013-06-17 01:07:00,64.0,61.7,29.94,WNW,296,0.0,0.0,92,0.00,,,0.00,meteohub,2013-06-17 05:07:00,
2013-06-17 01:12:00,64.0,61.7,29.95,WNW,296,0.0,0.0,92,0.00,,,0.00,meteohub,2013-06-17 05:12:00,
2013-06-17 01:17:00,64.0,61.7,29.95,NW,311,0.0,0.0,92,0.00,,,0.00,meteohub,2013-06-17 05:17:00,
2013-06-17 01:22:00,64.0,61.7,29.95,NW,311,0.0,0.0,92,0.00,,,0.00,meteohub,2013-06-17 05:22:00,
2013-06-17 01:27:00,64.0,61.7,29.94,NW,311,0.0,0.0,92,0.00,,,0.00,meteohub,2013-06-17 05:27:00,
2013-06-17 01:32:00,64.0,61.7,29.95,NW,311,0.0,0.0,92,0.00,,,0.00,meteohub,2013-06-17 05:32:00,
2013-06-17 01:37:00,64.0,61.7,29.94,NW,312,0.0,0.0,92,0.00,,,0.00,meteohub,2013-06-17 05:37:00,
2013-06-17 01:42:00,64.0,61.7,29.94,NW,312,0.0,0.0,92,0.00,,,0.00,meteohub,2013-06-17 05:42:00,
2013-06-17 01:47:00,64.0,61.7,29.94,NW,312,0.0,0.0,92,0.00,,,0.00,meteohub,2013-06-17 05:47:00,
2013-06-17 01:52:00,64.0,62.1,29.94,NW,312,0.0,0.0,93,0.00,,,0.00,meteohub,2013-06-17 05:52:00,
2013-06-17 01:57:00,64.0,62.1,29.94,NW,312,0.0,0.0,93,0.00,,,0.00,meteohub,2013-06-17 05:57:00,
2013-06-17 02:02:00,63.9,61.9,29.94,NW,312,0.0,0.0,93,0.00,,,0.00,meteohub,2013-06-17 06:02:00,
2013-06-17 02:07:00,63.9,61.9,29.94,NNE,25,0.0,0.0,93,0.00,,,0.00,meteohub,2013-06-17 06:07:00,
2013-06-17 02:12:00,63.7,61.7,29.93,North,354,0.0,0.0,93,0.00,,,0.00,meteohub,2013-06-17 06:12:00,
2013-06-17 02:17:00,63.5,61.7,29.93,NNW,333,0.0,0.0,94,0.00,,,0.00,meteohub,2013-06-17 06:17:00,
2013-06-17 02:22:00,63.3,61.5,29.93,NNW,332,0.0,0.0,94,0.00,,,0.00,meteohub,2013-06-17 06:22:00,
2013-06-17 02:27:00,63.3,61.5,29.93,NNW,333,0.0,0.0,94,0.00,,,0.00,meteohub,2013-06-17 06:27:00,
2013-06-17 02:32:00,63.1,61.3,29.93,NNW,333,0.0,0.0,94,0.00,,,0.00,meteohub,2013-06-17 06:32:00,
2013-06-17 02:37:00,63.1,61.3,29.93,NNW,332,0.0,0.0,94,0.00,,,0.00,meteohub,2013-06-17 06:37:00,
2013-06-17 02:42:00,63.0,61.2,29.93,NNW,332,0.0,0.0,94,0.00,,,0.00,meteohub,2013-06-17 06:42:00,
2013-06-17 02:47:00,63.0,61.2,29.93,NNW,333,0.0,0.0,94,0.00,,,0.00,meteohub,2013-06-17 06:47:00,
2013-06-17 02:52:00,62.8,61.0,29.92,NNW,333,0.0,0.0,94,0.00,,,0.00,meteohub,2013-06-17 06:52:00,
2013-06-17 02:57:00,62.8,61.0,29.93,NNW,332,0.0,0.0,94,0.00,,,0.00,meteohub,2013-06-17 06:57:00,
2013-06-17 03:02:00,62.6,60.8,29.92,NNW,333,0.0,0.0,94,0.00,,,0.00,meteohub,2013-06-17 07:02:00,
2013-06-17 03:07:00,62.4,60.6,29.93,NNW,333,0.0,0.0,94,0.00,,,0.00,meteohub,2013-06-17 07:07:00,
2013-06-17 03:12:00,62.4,60.4,29.92,NNW,333,0.0,0.0,93,0.00,,,0.00,meteohub,2013-06-17 07:12:00,
2013-06-17 03:17:00,62.2,60.3,29.92,NNW,333,0.0,0.0,93,0.00,,,0.00,meteohub,2013-06-17 07:17:00,
2013-06-17 03:22:00,62.2,59.9,29.92,NNW,333,0.0,0.0,92,0.00,,,0.00,meteohub,2013-06-17 07:22:00,
2013-06-17 03:27:00,62.2,60.3,29.92,NNW,333,0.0,0.0,93,0.00,,,0.00,meteohub,2013-06-17 07:27:00,
2013-06-17 03:32:00,61.9,59.2,29.92,NNW,333,0.0,0.0,91,0.00,,,0.00,meteohub,2013-06-17 07:32:00,
2013-06-17 03:37:00,61.9,59.5,29.92,NNW,333,0.0,0.0,92,0.00,,,0.00,meteohub,2013-06-17 07:37:00,
2013-06-17 03:42:00,61.7,59.0,29.92,NNW,333,0.0,0.0,91,0.00,,,0.00,meteohub,2013-06-17 07:42:00,
2013-06-17 03:47:00,61.5,58.8,29.92,NNW,333,0.0,0.0,91,0.00,,,0.00,meteohub,2013-06-17 07:47:00,
2013-06-17 03:52:00,61.5,58.6,29.92,NNW,333,0.0,0.0,90,0.00,,,0.00,meteohub,2013-06-17 07:52:00,
2013-06-17 03:57:00,61.3,58.5,29.92,NNW,333,0.0,0.0,90,0.00,,,0.00,meteohub,2013-06-17 07:57:00,
2013-06-17 04:02:00,61.3,58.1,29.92,NNW,333,0.0,0.0,89,0.00,,,0.00,meteohub,2013-06-17 08:02:00,
2013-06-17 04:07:00,61.2,58.3,29.92,NNW,333,0.0,0.0,90,0.00,,,0.00,meteohub,2013-06-17 08:07:00,
2013-06-17 04:12:00,61.2,58.3,29.92,NNW,333,0.0,0.0,90,0.00,,,0.00,meteohub,2013-06-17 08:12:00,
2013-06-17 04:17:00,61.2,57.9,29.92,NNW,333,0.0,0.0,89,0.00,,,0.00,meteohub,2013-06-17 08:17:00,
2013-06-17 04:22:00,61.2,58.3,29.92,NNW,333,0.0,0.0,90,0.00,,,0.00,meteohub,2013-06-17 08:22:00,
2013-06-17 04:27:00,61.0,57.7,29.92,NNW,333,0.0,0.0,89,0.00,,,0.00,meteohub,2013-06-17 08:27:00,
2013-06-17 04:32:00,61.0,57.7,29.92,NNW,333,0.0,0.0,89,0.00,,,0.00,meteohub,2013-06-17 08:32:00,
2013-06-17 04:37:00,61.0,57.7,29.92,NNW,333,0.0,0.0,89,0.00,,,0.00,meteohub,2013-06-17 08:37:00,
2013-06-17 04:42:00,61.0,57.7,29.92,NNW,333,0.0,0.0,89,0.00,,,0.00,meteohub,2013-06-17 08:42:00,
2013-06-17 04:47:00,61.0,57.4,29.91,NNW,333,0.0,0.0,88,0.00,,,0.00,meteohub,2013-06-17 08:47:00,
2013-06-17 04:52:00,61.0,57.4,29.91,NNW,333,0.0,0.0,88,0.00,,,0.00,meteohub,2013-06-17 08:52:00,
2013-06-17 04:57:00,61.2,57.6,29.91,NNW,333,0.0,0.0,88,0.00,,,0.00,meteohub,2013-06-17 08:57:00,
2013-06-17 05:02:00,61.2,57.6,29.91,NNW,333,0.0,0.0,88,0.00,,,0.00,meteohub,2013-06-17 09:02:00,
2013-06-17 05:07:00,61.3,57.7,29.91,NNW,333,0.0,0.0,88,0.00,,,0.00,meteohub,2013-06-17 09:07:00,
2013-06-17 05:12:00,61.3,57.7,29.91,NNW,333,0.0,0.0,88,0.00,,,0.00,meteohub,2013-06-17 09:12:00,
2013-06-17 05:17:00,61.3,57.7,29.91,NNW,333,0.0,0.0,88,0.00,,,0.00,meteohub,2013-06-17 09:17:00,
2013-06-17 05:22:00,61.3,57.7,29.91,NNW,333,0.0,0.0,88,0.00,,,0.00,meteohub,2013-06-17 09:22:00,
2013-06-17 05:27:00,61.3,57.7,29.91,NNW,333,0.0,0.0,88,0.00,,,0.00,meteohub,2013-06-17 09:27:00,
2013-06-17 05:32:00,61.3,57.7,29.91,NNW,333,0.0,0.0,88,0.00,,,0.00,meteohub,2013-06-17 09:32:00,
2013-06-17 05:37:00,61.3,57.7,29.91,NNW,333,0.0,0.0,88,0.00,,,0.00,meteohub,2013-06-17 09:37:00,
2013-06-17 05:42:00,61.2,57.9,29.91,NNW,333,0.0,0.0,89,0.00,,,0.00,meteohub,2013-06-17 09:42:00,
2013-06-17 05:47:00,61.2,57.9,29.91,NNW,333,0.0,0.0,89,0.00,,,0.00,meteohub,2013-06-17 09:47:00,
2013-06-17 05:52:00,61.3,58.1,29.91,NNW,333,0.0,0.0,89,0.00,,,0.00,meteohub,2013-06-17 09:52:00,
2013-06-17 05:57:00,61.3,58.1,29.91,NNW,333,0.0,0.0,89,0.00,,,0.00,meteohub,2013-06-17 09:57:00,
2013-06-17 06:02:00,61.5,58.3,29.91,WNW,296,0.0,0.0,89,0.00,,,0.00,meteohub,2013-06-17 10:02:00,
2013-06-17 06:07:00,61.9,58.3,29.91,WNW,296,0.0,0.0,88,0.00,,,0.00,meteohub,2013-06-17 10:07:00,
2013-06-17 06:12:00,62.1,58.5,29.91,WNW,296,0.0,0.0,88,0.00,,,0.00,meteohub,2013-06-17 10:12:00,
2013-06-17 06:17:00,62.2,58.6,29.91,WNW,296,0.0,0.0,88,0.00,,,0.00,meteohub,2013-06-17 10:17:00,
2013-06-17 06:22:00,62.4,59.2,29.91,WNW,286,0.0,0.0,89,0.00,,,0.00,meteohub,2013-06-17 10:22:00,
2013-06-17 06:27:00,62.6,59.0,29.91,WNW,286,0.0,0.0,88,0.00,,,0.00,meteohub,2013-06-17 10:27:00,
2013-06-17 06:32:00,62.6,59.4,29.91,WNW,286,0.0,0.0,89,0.00,,,0.00,meteohub,2013-06-17 10:32:00,
2013-06-17 06:37:00,62.8,59.5,29.91,WNW,287,0.0,0.0,89,0.00,,,0.00,meteohub,2013-06-17 10:37:00,
2013-06-17 06:42:00,62.8,59.7,29.91,WNW,289,0.0,0.0,90,0.00,,,0.00,meteohub,2013-06-17 10:42:00,
2013-06-17 06:47:00,62.8,59.7,29.90,WNW,289,0.0,0.0,90,0.00,,,0.00,meteohub,2013-06-17 10:47:00,
2013-06-17 06:52:00,62.8,60.1,29.90,WNW,295,0.0,0.0,91,0.00,,,0.00,meteohub,2013-06-17 10:52:00,
2013-06-17 06:57:00,62.6,59.9,29.90,NW,308,0.0,0.0,91,0.00,,,0.00,meteohub,2013-06-17 10:57:00,
2013-06-17 07:02:00,62.6,59.9,29.91,West,281,0.0,0.0,91,0.00,,,0.00,meteohub,2013-06-17 11:02:00,
2013-06-17 07:07:00,62.6,59.9,29.91,WNW,288,0.0,0.0,91,0.00,,,0.00,meteohub,2013-06-17 11:07:00,
2013-06-17 07:12:00,62.8,60.1,29.91,WNW,302,0.0,0.0,91,0.00,,,0.00,meteohub,2013-06-17 11:12:00,
2013-06-17 07:17:00,62.8,60.1,29.91,WNW,293,0.0,0.0,91,0.00,,,0.00,meteohub,2013-06-17 11:17:00,
2013-06-17 07:22:00,62.8,60.1,29.91,WNW,293,0.0,0.0,91,0.00,,,0.00,meteohub,2013-06-17 11:22:00,
2013-06-17 07:27:00,63.0,60.3,29.91,WNW,293,0.0,0.0,91,0.00,,,0.00,meteohub,2013-06-17 11:27:00,
2013-06-17 07:32:00,63.0,60.3,29.91,WNW,293,0.0,0.0,91,0.00,,,0.00,meteohub,2013-06-17 11:32:00,
2013-06-17 07:37:00,63.0,60.3,29.91,WNW,292,0.0,0.0,91,0.00,,,0.00,meteohub,2013-06-17 11:37:00,
2013-06-17 07:42:00,63.0,60.3,29.92,WNW,292,0.0,0.0,91,0.00,,,0.00,meteohub,2013-06-17 11:42:00,
2013-06-17 07:47:00,63.0,59.9,29.92,WNW,292,0.0,0.0,90,0.00,,,0.00,meteohub,2013-06-17 11:47:00,
2013-06-17 07:52:00,63.1,60.1,29.92,NW,320,0.0,0.0,90,0.00,,,0.00,meteohub,2013-06-17 11:52:00,
2013-06-17 07:57:00,63.1,60.1,29.92,NNW,328,0.0,0.0,90,0.00,,,0.00,meteohub,2013-06-17 11:57:00,
2013-06-17 08:02:00,63.1,60.1,29.91,WNW,287,0.0,0.0,90,0.00,,,0.00,meteohub,2013-06-17 12:02:00,
2013-06-17 08:07:00,63.1,60.4,29.92,WNW,294,0.0,0.0,91,0.00,,,0.00,meteohub,2013-06-17 12:07:00,
2013-06-17 08:11:00,63.1,60.4,29.91,WNW,294,0.0,0.0,91,0.00,,,0.00,meteohub,2013-06-17 12:11:00,
2013-06-17 08:17:00,63.1,60.4,29.91,ESE,111,0.0,0.0,91,0.00,,,0.00,meteohub,2013-06-17 12:17:00,
2013-06-17 08:22:00,63.1,60.8,29.91,West,278,0.0,0.0,92,0.00,,,0.00,meteohub,2013-06-17 12:22:00,
2013-06-17 08:27:00,63.1,60.8,29.91,West,267,0.0,0.0,92,0.00,,,0.00,meteohub,2013-06-17 12:27:00,
2013-06-17 08:32:00,63.7,61.3,29.91,West,273,0.0,0.0,92,0.00,,,0.00,meteohub,2013-06-17 12:32:00,
2013-06-17 08:37:00,63.9,61.2,29.91,NW,306,0.0,0.0,91,0.00,,,0.00,meteohub,2013-06-17 12:37:00,
2013-06-17 08:42:00,64.0,61.3,29.91,NW,306,0.0,0.0,91,0.00,,,0.00,meteohub,2013-06-17 12:42:00,
2013-06-17 08:47:00,64.0,61.0,29.91,NW,306,0.0,0.0,90,0.00,,,0.00,meteohub,2013-06-17 12:47:00,
2013-06-17 08:52:00,64.2,61.2,29.91,NW,306,0.0,0.0,90,0.00,,,0.00,meteohub,2013-06-17 12:52:00,
2013-06-17 08:57:00,64.6,61.5,29.91,NW,306,0.0,0.0,90,0.00,,,0.00,meteohub,2013-06-17 12:57:00,
2013-06-17 09:02:00,64.8,61.7,29.91,NW,306,0.0,0.0,90,0.00,,,0.00,meteohub,2013-06-17 13:02:00,
2013-06-17 09:07:00,64.9,61.9,29.91,NW,306,0.0,0.0,90,0.00,,,0.00,meteohub,2013-06-17 13:07:00,
2013-06-17 09:12:00,64.9,61.9,29.91,NW,306,0.0,0.0,90,0.00,,,0.00,meteohub,2013-06-17 13:12:00,
2013-06-17 09:17:00,65.1,61.9,29.90,NW,306,0.0,0.0,89,0.00,,,0.00,meteohub,2013-06-17 13:17:00,
2013-06-17 09:22:00,65.3,62.2,29.90,NW,306,0.0,0.0,90,0.00,,,0.00,meteohub,2013-06-17 13:22:00,
2013-06-17 09:27:00,65.5,62.2,29.90,NW,310,0.0,0.0,89,0.00,,,0.00,meteohub,2013-06-17 13:27:00,
2013-06-17 09:32:00,65.7,62.1,29.90,NW,310,0.0,0.0,88,0.00,,,0.00,meteohub,2013-06-17 13:32:00,
2013-06-17 09:37:00,65.7,62.1,29.90,NW,310,0.0,0.0,88,0.00,,,0.00,meteohub,2013-06-17 13:37:00,
2013-06-17 09:42:00,66.0,62.6,29.91,NW,310,0.0,0.0,89,0.00,,,0.00,meteohub,2013-06-17 13:42:00,
2013-06-17 09:47:00,66.4,62.8,29.90,NW,310,0.0,0.0,88,0.00,,,0.00,meteohub,2013-06-17 13:47:00,
2013-06-17 09:52:00,66.6,62.2,29.90,NW,309,0.0,0.0,86,0.00,,,0.00,meteohub,2013-06-17 13:52:00,
2013-06-17 09:57:00,66.4,62.1,29.91,ENE,62,0.0,0.0,86,0.00,,,0.00,meteohub,2013-06-17 13:57:00,
2013-06-17 10:02:00,66.4,62.4,29.91,NW,311,0.0,0.0,87,0.00,,,0.00,meteohub,2013-06-17 14:02:00,
2013-06-17 10:07:00,66.4,62.1,29.91,NNW,340,0.0,0.0,86,0.00,,,0.00,meteohub,2013-06-17 14:07:00,
2013-06-17 10:12:00,66.6,62.2,29.91,NW,306,0.0,0.0,86,0.00,,,0.00,meteohub,2013-06-17 14:12:00,
2013-06-17 10:17:00,66.6,61.9,29.91,WNW,294,0.0,0.0,85,0.00,,,0.00,meteohub,2013-06-17 14:17:00,
2013-06-17 10:22:00,66.4,61.3,29.91,WNW,300,0.0,0.0,84,0.00,,,0.00,meteohub,2013-06-17 14:22:00,
2013-06-17 10:27:00,66.6,62.6,29.91,WNW,300,0.0,0.0,87,0.00,,,0.00,meteohub,2013-06-17 14:27:00,
2013-06-17 10:32:00,66.6,61.9,29.91,WNW,287,0.0,0.0,85,0.00,,,0.00,meteohub,2013-06-17 14:32:00,
2013-06-17 10:37:00,66.9,62.2,29.91,WNW,290,0.0,0.0,85,0.00,,,0.00,meteohub,2013-06-17 14:37:00,
2013-06-17 10:42:00,67.6,62.6,29.91,WNW,289,0.0,0.0,84,0.00,,,0.00,meteohub,2013-06-17 14:42:00,
2013-06-17 10:47:00,68.2,62.4,29.90,NW,321,0.0,0.0,82,0.00,,,0.00,meteohub,2013-06-17 14:47:00,
2013-06-17 10:52:00,68.5,63.1,29.90,WNW,300,0.0,0.0,83,0.00,,,0.00,meteohub,2013-06-17 14:52:00,
2013-06-17 10:57:00,68.5,63.1,29.90,WNW,285,0.0,0.0,83,0.00,,,0.00,meteohub,2013-06-17 14:57:00,
2013-06-17 11:02:00,68.4,63.3,29.91,WNW,285,0.0,0.0,84,0.00,,,0.00,meteohub,2013-06-17 15:02:00,
2013-06-17 11:07:00,68.2,62.4,29.91,WNW,289,0.0,0.0,82,0.00,,,0.00,meteohub,2013-06-17 15:07:00,
2013-06-17 11:12:00,67.8,62.4,29.91,WNW,289,0.0,0.0,83,0.00,,,0.00,meteohub,2013-06-17 15:12:00,
2013-06-17 11:16:00,67.8,62.8,29.91,WNW,289,0.0,0.0,84,0.00,,,0.00,meteohub,2013-06-17 15:16:00,
2013-06-17 11:21:00,68.2,63.5,29.91,WNW,289,0.0,0.0,85,0.00,,,0.00,meteohub,2013-06-17 15:21:00,
2013-06-17 11:27:00,68.2,63.5,29.91,West,263,0.0,0.0,85,0.00,,,0.00,meteohub,2013-06-17 15:27:00,
2013-06-17 11:32:00,67.8,62.4,29.91,WNW,289,0.0,0.0,83,0.00,,,0.00,meteohub,2013-06-17 15:32:00,
2013-06-17 11:37:00,67.6,62.2,29.91,NW,307,0.0,0.0,83,0.00,,,0.00,meteohub,2013-06-17 15:37:00,
2013-06-17 11:42:00,67.8,62.8,29.91,NNW,333,0.0,0.0,84,0.00,,,0.00,meteohub,2013-06-17 15:42:00,
2013-06-17 11:47:00,67.8,62.4,29.91,NW,316,0.0,0.0,83,0.00,,,0.00,meteohub,2013-06-17 15:47:00,
2013-06-17 11:52:00,67.6,62.6,29.91,WNW,301,0.0,0.0,84,0.00,,,0.00,meteohub,2013-06-17 15:52:00,
2013-06-17 11:57:00,67.8,62.8,29.91,WNW,301,0.0,0.0,84,0.00,,,0.00,meteohub,2013-06-17 15:57:00,
2013-06-17 12:02:00,68.0,62.6,29.91,WNW,301,0.0,0.0,83,0.00,,,0.00,meteohub,2013-06-17 16:02:00,
2013-06-17 12:07:00,68.4,63.7,29.91,WNW,301,0.0,0.0,85,0.00,,,0.00,meteohub,2013-06-17 16:07:00,
2013-06-17 12:12:00,68.5,63.1,29.91,WNW,300,0.0,0.0,83,0.00,,,0.00,meteohub,2013-06-17 16:12:00,
2013-06-17 12:17:00,68.9,63.9,29.91,WNW,300,0.0,0.0,84,0.00,,,0.00,meteohub,2013-06-17 16:17:00,
2013-06-17 12:22:00,69.4,64.0,29.91,NW,304,0.0,0.0,83,0.00,,,0.00,meteohub,2013-06-17 16:22:00,
2013-06-17 12:27:00,69.4,63.3,29.91,WNW,293,0.0,0.0,81,0.00,,,0.00,meteohub,2013-06-17 16:27:00,
2013-06-17 12:32:00,69.3,64.6,29.91,WNW,297,0.0,0.0,85,0.00,,,0.00,meteohub,2013-06-17 16:32:00,
2013-06-17 12:37:00,69.6,65.3,29.91,WNW,297,0.0,0.0,86,0.00,,,0.00,meteohub,2013-06-17 16:37:00,
2013-06-17 12:42:00,70.5,63.7,29.91,WNW,297,0.0,0.0,79,0.00,,,0.00,meteohub,2013-06-17 16:42:00,
2013-06-17 12:47:00,70.7,62.4,29.91,WNW,300,0.0,0.0,75,0.00,,,0.00,meteohub,2013-06-17 16:47:00,
2013-06-17 12:52:00,70.5,64.4,29.91,WNW,300,0.0,0.0,81,0.00,,,0.00,meteohub,2013-06-17 16:52:00,
2013-06-17 12:57:00,70.9,64.0,29.91,ESE,110,0.0,0.0,79,0.00,,,0.00,meteohub,2013-06-17 16:57:00,
2013-06-17 13:02:00,71.2,63.7,29.91,WNW,285,0.0,0.0,77,0.00,,,0.00,meteohub,2013-06-17 17:02:00,
2013-06-17 13:07:00,71.8,63.9,29.91,WNW,285,0.0,0.0,76,0.00,,,0.00,meteohub,2013-06-17 17:07:00,
2013-06-17 13:12:00,72.3,65.8,29.91,NW,314,0.0,0.0,80,0.00,,,0.00,meteohub,2013-06-17 17:12:00,
2013-06-17 13:17:00,72.3,63.1,29.91,NW,314,0.0,0.0,73,0.00,,,0.00,meteohub,2013-06-17 17:17:00,
2013-06-17 13:22:00,72.1,62.6,29.91,NW,314,0.0,0.0,72,0.00,,,0.00,meteohub,2013-06-17 17:22:00,
2013-06-17 13:27:00,72.1,62.2,29.91,West,279,0.0,0.0,71,0.00,,,0.00,meteohub,2013-06-17 17:27:00,
2013-06-17 13:32:00,72.3,65.5,29.91,SSW,211,0.0,0.0,79,0.00,,,0.00,meteohub,2013-06-17 17:32:00,
2013-06-17 13:37:00,72.7,65.8,29.91,WSW,241,0.0,0.0,79,0.00,,,0.00,meteohub,2013-06-17 17:37:00,
2013-06-17 13:42:00,72.0,64.8,29.91,WSW,241,0.0,0.0,78,0.00,,,0.00,meteohub,2013-06-17 17:42:00,
2013-06-17 13:47:00,71.2,65.8,29.90,WSW,241,0.0,0.0,83,0.00,,,0.00,meteohub,2013-06-17 17:47:00,
2013-06-17 13:52:00,70.5,65.8,29.90,WSW,241,0.0,0.0,85,0.00,,,0.00,meteohub,2013-06-17 17:52:00,
2013-06-17 13:57:00,69.6,64.9,29.91,WSW,241,0.0,0.0,85,0.00,,,0.00,meteohub,2013-06-17 17:57:00,
2013-06-17 14:02:00,68.4,63.7,29.91,WNW,293,0.0,0.0,85,0.00,,,0.00,meteohub,2013-06-17 18:02:00,
2013-06-17 14:07:00,65.8,61.5,29.91,NW,310,0.0,0.0,86,0.00,,,0.00,meteohub,2013-06-17 18:07:00,
2013-06-17 14:12:00,63.3,60.3,29.92,NW,323,0.0,0.0,90,0.26,,,0.26,meteohub,2013-06-17 18:12:00,
2013-06-17 14:17:00,62.2,59.9,29.92,WNW,293,0.0,0.0,92,0.59,,,0.59,meteohub,2013-06-17 18:17:00,
2013-06-17 14:22:00,61.9,59.9,29.91,NW,326,0.0,0.0,93,0.65,,,0.65,meteohub,2013-06-17 18:22:00,
2013-06-17 14:27:00,61.5,59.7,29.91,WNW,298,0.0,0.0,94,0.74,,,0.74,meteohub,2013-06-17 18:27:00,
2013-06-17 14:32:00,61.7,59.9,29.90,WNW,299,0.0,0.0,94,0.75,,,0.75,meteohub,2013-06-17 18:32:00,
2013-06-17 14:37:00,61.9,60.4,29.89,WNW,298,0.0,0.0,95,0.76,,,0.76,meteohub,2013-06-17 18:37:00,
2013-06-17 14:42:00,62.4,61.0,29.89,WNW,298,0.0,0.0,95,0.76,,,0.76,meteohub,2013-06-17 18:42:00,
2013-06-17 14:47:00,62.8,61.3,29.89,WNW,298,0.0,0.0,95,0.76,,,0.76,meteohub,2013-06-17 18:47:00,
2013-06-17 14:52:00,63.0,61.9,29.89,WNW,298,0.0,0.0,96,0.77,,,0.77,meteohub,2013-06-17 18:52:00,
2013-06-17 14:57:00,63.3,62.2,29.88,WNW,298,0.0,0.0,96,0.77,,,0.77,meteohub,2013-06-17 18:57:00,
2013-06-17 15:03:00,64.6,63.5,29.88,WNW,298,0.0,0.0,96,0.77,,,0.77,meteohub,2013-06-17 19:03:00,
2013-06-17 15:08:00,64.9,63.9,29.87,WNW,298,0.0,0.0,96,0.75,,,0.77,meteohub,2013-06-17 19:08:00,
2013-06-17 15:13:00,64.9,63.9,29.87,WNW,298,0.0,0.0,96,0.30,,,0.77,meteohub,2013-06-17 19:13:00,
2013-06-17 15:18:00,65.1,64.0,29.87,WNW,298,0.0,0.0,96,0.17,,,0.77,meteohub,2013-06-17 19:18:00,
2013-06-17 15:23:00,65.3,63.9,29.86,WNW,298,0.0,0.0,95,0.08,,,0.77,meteohub,2013-06-17 19:23:00,
2013-06-17 15:28:00,65.1,63.7,29.86,WNW,298,0.0,0.0,95,0.03,,,0.77,meteohub,2013-06-17 19:28:00,
2013-06-17 15:33:00,66.0,64.8,29.86,WNW,298,0.0,0.0,96,0.01,,,0.77,meteohub,2013-06-17 19:33:00,
2013-06-17 15:38:00,66.7,65.5,29.86,WNW,298,0.0,0.0,96,0.01,,,0.77,meteohub,2013-06-17 19:38:00,
2013-06-17 15:43:00,67.5,66.2,29.86,WNW,298,0.0,0.0,96,0.01,,,0.77,meteohub,2013-06-17 19:43:00,
2013-06-17 15:48:00,68.0,66.7,29.86,WNW,298,0.0,0.0,96,0.01,,,0.77,meteohub,2013-06-17 19:48:00,
2013-06-17 15:53:00,68.4,66.9,29.86,WNW,298,0.0,0.0,95,0.00,,,0.77,meteohub,2013-06-17 19:53:00,
2013-06-17 15:58:00,68.0,65.7,29.86,WNW,298,0.0,0.0,92,0.00,,,0.77,meteohub,2013-06-17 19:58:00,
2013-06-17 16:03:00,68.2,66.0,29.86,WNW,298,0.0,0.0,93,0.00,,,0.77,meteohub,2013-06-17 20:03:00,
2013-06-17 16:08:00,68.2,66.4,29.86,WNW,298,0.0,0.0,94,0.00,,,0.77,meteohub,2013-06-17 20:08:00,
2013-06-17 16:13:00,68.2,65.5,29.86,WNW,298,0.0,0.0,91,0.00,,,0.77,meteohub,2013-06-17 20:13:00,
2013-06-17 16:18:00,68.4,65.7,29.86,WNW,298,0.0,0.0,91,0.00,,,0.77,meteohub,2013-06-17 20:18:00,
2013-06-17 16:23:00,68.5,65.1,29.86,WNW,298,0.0,0.0,89,0.00,,,0.77,meteohub,2013-06-17 20:23:00,
2013-06-17 16:28:00,69.3,65.8,29.85,WNW,297,0.0,0.0,89,0.00,,,0.77,meteohub,2013-06-17 20:28:00,
2013-06-17 16:33:00,70.0,65.3,29.86,WNW,297,0.0,0.0,85,0.00,,,0.77,meteohub,2013-06-17 20:33:00,
2013-06-17 16:38:00,70.2,64.8,29.86,WNW,298,0.0,0.0,83,0.00,,,0.77,meteohub,2013-06-17 20:38:00,
2013-06-17 16:43:00,70.3,66.6,29.85,WNW,298,0.0,0.0,88,0.00,,,0.77,meteohub,2013-06-17 20:43:00,
2013-06-17 16:48:00,70.7,65.3,29.85,WNW,298,0.0,0.0,83,0.00,,,0.77,meteohub,2013-06-17 20:48:00,
2013-06-17 16:53:00,70.5,64.8,29.85,WNW,291,0.0,0.0,82,0.00,,,0.77,meteohub,2013-06-17 20:53:00,
2013-06-17 16:58:00,70.7,65.3,29.85,WNW,289,0.0,0.0,83,0.00,,,0.77,meteohub,2013-06-17 20:58:00,
2013-06-17 17:03:00,71.1,64.9,29.85,WNW,289,0.0,0.0,81,0.00,,,0.77,meteohub,2013-06-17 21:03:00,
2013-06-17 17:08:00,71.2,65.1,29.85,WNW,289,0.0,0.0,81,0.00,,,0.77,meteohub,2013-06-17 21:08:00,
2013-06-17 17:13:00,71.4,65.3,29.85,WNW,289,0.0,0.0,81,0.00,,,0.77,meteohub,2013-06-17 21:13:00,
2013-06-17 17:18:00,72.0,65.5,29.86,WNW,289,0.0,0.0,80,0.00,,,0.77,meteohub,2013-06-17 21:18:00,
2013-06-17 17:23:00,72.1,64.6,29.86,WNW,289,0.0,0.0,77,0.00,,,0.77,meteohub,2013-06-17 21:23:00,
2013-06-17 17:28:00,72.5,64.6,29.85,West,266,0.0,0.0,76,0.00,,,0.77,meteohub,2013-06-17 21:28:00,
2013-06-17 17:33:00,72.7,65.1,29.85,West,266,0.0,0.0,77,0.00,,,0.77,meteohub,2013-06-17 21:33:00,
2013-06-17 17:38:00,72.9,65.7,29.85,West,266,0.0,0.0,78,0.00,,,0.77,meteohub,2013-06-17 21:38:00,
2013-06-17 17:43:00,72.7,64.2,29.85,West,266,0.0,0.0,75,0.00,,,0.77,meteohub,2013-06-17 21:43:00,
2013-06-17 17:48:00,72.5,65.3,29.85,West,266,0.0,0.0,78,0.00,,,0.77,meteohub,2013-06-17 21:48:00,
2013-06-17 17:53:00,72.3,64.8,29.86,West,266,0.0,0.0,77,0.00,,,0.77,meteohub,2013-06-17 21:53:00,
2013-06-17 17:58:00,72.7,65.1,29.86,WNW,287,0.0,0.0,77,0.00,,,0.77,meteohub,2013-06-17 21:58:00,
2013-06-17 18:03:00,72.9,64.0,29.86,WNW,287,0.0,0.0,74,0.00,,,0.77,meteohub,2013-06-17 22:03:00,
2013-06-17 18:08:00,73.4,65.3,29.86,WNW,287,0.0,0.0,76,0.00,,,0.77,meteohub,2013-06-17 22:08:00,
2013-06-17 18:13:00,73.4,64.2,29.86,WNW,287,0.0,0.0,73,0.00,,,0.77,meteohub,2013-06-17 22:13:00,
2013-06-17 18:18:00,73.2,64.8,29.86,WNW,287,0.0,0.0,75,0.00,,,0.77,meteohub,2013-06-17 22:18:00,
2013-06-17 18:23:00,72.7,64.8,29.85,WNW,287,0.0,0.0,76,0.00,,,0.77,meteohub,2013-06-17 22:23:00,
2013-06-17 18:28:00,72.7,64.8,29.85,NNW,327,0.0,0.0,76,0.00,,,0.77,meteohub,2013-06-17 22:28:00,
2013-06-17 18:33:00,72.1,64.6,29.85,NNW,328,0.0,0.0,77,0.00,,,0.77,meteohub,2013-06-17 22:33:00,
2013-06-17 18:38:00,72.1,65.7,29.85,NW,316,0.0,0.0,80,0.00,,,0.77,meteohub,2013-06-17 22:38:00,
2013-06-17 18:43:00,72.3,66.6,29.85,NW,316,0.0,0.0,82,0.00,,,0.77,meteohub,2013-06-17 22:43:00,
2013-06-17 18:48:00,72.3,64.4,29.85,NW,316,0.0,0.0,76,0.00,,,0.77,meteohub,2013-06-17 22:48:00,
2013-06-17 18:53:00,72.7,65.1,29.85,NW,316,0.0,0.0,77,0.00,,,0.77,meteohub,2013-06-17 22:53:00,
2013-06-17 18:58:00,72.3,63.5,29.85,NW,316,0.0,0.0,74,0.00,,,0.77,meteohub,2013-06-17 22:58:00,
2013-06-17 19:03:00,72.1,64.6,29.85,NW,316,0.0,0.0,77,0.00,,,0.77,meteohub,2013-06-17 23:03:00,
2013-06-17 19:08:00,72.1,65.7,29.85,NW,316,0.0,0.0,80,0.00,,,0.77,meteohub,2013-06-17 23:08:00,
2013-06-17 19:13:00,72.1,64.6,29.85,NW,316,0.0,0.0,77,0.00,,,0.77,meteohub,2013-06-17 23:13:00,
2013-06-17 19:18:00,72.0,64.4,29.86,NW,317,0.0,0.0,77,0.00,,,0.77,meteohub,2013-06-17 23:18:00,
2013-06-17 19:23:00,70.9,63.7,29.86,NW,317,0.0,0.0,78,0.00,,,0.77,meteohub,2013-06-17 23:23:00,
2013-06-17 19:28:00,70.2,64.0,29.85,NW,317,0.0,0.0,81,0.00,,,0.77,meteohub,2013-06-17 23:28:00,
2013-06-17 19:33:00,69.6,63.9,29.85,NW,318,0.0,0.0,82,0.00,,,0.77,meteohub,2013-06-17 23:33:00,
2013-06-17 19:38:00,69.4,64.0,29.86,NW,318,0.0,0.0,83,0.00,,,0.77,meteohub,2013-06-17 23:38:00,
2013-06-17 19:43:00,69.1,64.0,29.86,NW,318,0.0,0.0,84,0.00,,,0.77,meteohub,2013-06-17 23:43:00,
2013-06-17 19:48:00,68.4,63.3,29.86,NW,318,0.0,0.0,84,0.00,,,0.77,meteohub,2013-06-17 23:48:00,
2013-06-17 19:53:00,68.0,63.0,29.85,NW,318,0.0,0.0,84,0.00,,,0.77,meteohub,2013-06-17 23:53:00,
2013-06-17 19:58:00,67.6,63.3,29.85,NW,318,0.0,0.0,86,0.00,,,0.77,meteohub,2013-06-17 23:58:00,
2013-06-17 20:03:00,67.5,63.1,29.85,NW,318,0.0,0.0,86,0.00,,,0.77,meteohub,2013-06-18 00:03:00,
2013-06-17 20:08:00,67.5,63.9,29.85,NW,318,0.0,0.0,88,0.00,,,0.00,meteohub,2013-06-18 00:08:00,
2013-06-17 20:14:00,67.3,63.7,29.85,NW,318,0.0,0.0,88,0.00,,,0.00,meteohub,2013-06-18 00:14:00,
2013-06-17 20:19:00,66.9,63.5,29.85,NW,318,0.0,0.0,89,0.00,,,0.00,meteohub,2013-06-18 00:19:00,
2013-06-17 20:24:00,66.9,63.3,29.85,NW,318,0.0,0.0,88,0.00,,,0.00,meteohub,2013-06-18 00:24:00,
2013-06-17 20:29:00,66.7,63.3,29.85,NW,318,0.0,0.0,89,0.00,,,0.00,meteohub,2013-06-18 00:29:00,
2013-06-17 20:34:00,66.6,63.5,29.85,NW,318,0.0,0.0,90,0.00,,,0.00,meteohub,2013-06-18 00:34:00,
2013-06-17 20:39:00,66.4,63.3,29.85,NW,318,0.0,0.0,90,0.00,,,0.00,meteohub,2013-06-18 00:39:00,
2013-06-17 20:44:00,66.0,63.0,29.85,NW,318,0.0,0.0,90,0.00,,,0.00,meteohub,2013-06-18 00:44:00,
2013-06-17 20:49:00,65.8,62.8,29.85,ESE,110,0.0,0.0,90,0.00,,,0.00,meteohub,2013-06-18 00:49:00,
2013-06-17 20:54:00,65.7,63.0,29.85,ESE,110,0.0,0.0,91,0.00,,,0.00,meteohub,2013-06-18 00:54:00,
2013-06-17 20:59:00,65.7,63.0,29.85,ESE,110,0.0,0.0,91,0.00,,,0.00,meteohub,2013-06-18 00:59:00,
2013-06-17 21:04:00,65.7,63.0,29.85,ESE,111,0.0,0.0,91,0.01,,,0.01,meteohub,2013-06-18 01:04:00,
2013-06-17 21:09:00,65.5,63.1,29.85,ESE,111,0.0,0.0,92,0.01,,,0.01,meteohub,2013-06-18 01:09:00,
2013-06-17 21:14:00,65.1,63.0,29.85,WNW,288,0.0,0.0,93,0.03,,,0.03,meteohub,2013-06-18 01:14:00,
2013-06-17 21:19:00,64.9,62.8,29.85,WNW,289,0.0,0.0,93,0.04,,,0.04,meteohub,2013-06-18 01:19:00,
2013-06-17 21:24:00,64.8,62.6,29.85,WNW,289,0.0,0.0,93,0.05,,,0.05,meteohub,2013-06-18 01:24:00,
2013-06-17 21:29:00,64.6,62.4,29.85,WNW,289,0.0,0.0,93,0.05,,,0.05,meteohub,2013-06-18 01:29:00,
2013-06-17 21:34:00,64.4,62.4,29.85,WNW,289,0.0,0.0,93,0.05,,,0.05,meteohub,2013-06-18 01:34:00,
2013-06-17 21:39:00,64.4,62.6,29.85,WNW,289,0.0,0.0,94,0.05,,,0.05,meteohub,2013-06-18 01:39:00,
2013-06-17 21:44:00,64.2,62.4,29.85,WNW,289,0.0,0.0,94,0.05,,,0.05,meteohub,2013-06-18 01:44:00,
2013-06-17 21:49:00,64.2,62.4,29.86,WNW,289,0.0,0.0,94,0.05,,,0.05,meteohub,2013-06-18 01:49:00,
2013-06-17 21:54:00,64.0,62.2,29.85,WNW,289,0.0,0.0,94,0.05,,,0.05,meteohub,2013-06-18 01:54:00,
2013-06-17 21:59:00,64.0,62.2,29.85,WNW,289,0.0,0.0,94,0.05,,,0.05,meteohub,2013-06-18 01:59:00,
2013-06-17 22:04:00,63.9,62.1,29.86,WNW,289,0.0,0.0,94,0.04,,,0.05,meteohub,2013-06-18 02:04:00,
2013-06-17 22:09:00,63.7,61.7,29.85,WNW,289,0.0,0.0,93,0.03,,,0.05,meteohub,2013-06-18 02:09:00,
2013-06-17 22:14:00,63.7,61.7,29.85,WNW,289,0.0,0.0,93,0.01,,,0.05,meteohub,2013-06-18 02:14:00,
2013-06-17 22:19:00,63.7,61.7,29.85,WNW,289,0.0,0.0,93,0.01,,,0.05,meteohub,2013-06-18 02:19:00,
2013-06-17 22:24:00,63.7,61.7,29.85,WNW,289,0.0,0.0,93,0.00,,,0.05,meteohub,2013-06-18 02:24:00,
2013-06-17 22:29:00,63.7,61.7,29.85,WNW,289,0.0,0.0,93,0.00,,,0.05,meteohub,2013-06-18 02:29:00,
2013-06-17 22:34:00,63.7,61.9,29.85,WNW,289,0.0,0.0,94,0.00,,,0.05,meteohub,2013-06-18 02:34:00,
2013-06-17 22:39:00,63.7,61.9,29.85,WNW,289,0.0,0.0,94,0.00,,,0.05,meteohub,2013-06-18 02:39:00,
2013-06-17 22:44:00,63.5,61.7,29.86,WNW,289,0.0,0.0,94,0.00,,,0.05,meteohub,2013-06-18 02:44:00,
2013-06-17 22:49:00,63.3,61.5,29.86,WNW,289,0.0,0.0,94,0.00,,,0.05,meteohub,2013-06-18 02:49:00,
2013-06-17 22:54:00,63.3,61.9,29.86,WNW,290,0.0,0.0,95,0.00,,,0.05,meteohub,2013-06-18 02:54:00,
2013-06-17 22:59:00,63.3,61.9,29.86,WNW,290,0.0,0.0,95,0.00,,,0.05,meteohub,2013-06-18 02:59:00,
2013-06-17 23:04:00,63.1,61.7,29.86,WNW,290,0.0,0.0,95,0.00,,,0.05,meteohub,2013-06-18 03:04:00,
2013-06-17 23:09:00,63.1,61.7,29.86,WNW,290,0.0,0.0,95,0.00,,,0.05,meteohub,2013-06-18 03:09:00,
2013-06-17 23:14:00,63.1,61.7,29.86,WNW,290,0.0,0.0,95,0.00,,,0.05,meteohub,2013-06-18 03:14:00,
2013-06-17 23:19:00,63.0,61.5,29.86,WNW,290,0.0,0.0,95,0.00,,,0.05,meteohub,2013-06-18 03:19:00,
2013-06-17 23:24:00,62.8,61.3,29.85,WNW,290,0.0,0.0,95,0.00,,,0.05,meteohub,2013-06-18 03:24:00,
2013-06-17 23:29:00,62.8,61.3,29.85,WNW,290,0.0,0.0,95,0.00,,,0.05,meteohub,2013-06-18 03:29:00,
2013-06-17 23:34:00,63.0,61.5,29.85,WNW,290,0.0,0.0,95,0.00,,,0.05,meteohub,2013-06-18 03:34:00,
2013-06-17 23:39:00,63.0,61.5,29.85,WNW,290,0.0,0.0,95,0.00,,,0.05,meteohub,2013-06-18 03:39:00,
2013-06-17 23:44:00,63.0,61.5,29.85,WNW,290,0.0,0.0,95,0.00,,,0.05,meteohub,2013-06-18 03:44:00,
2013-06-17 23:49:00,63.0,61.9,29.85,WNW,290,0.0,0.0,96,0.00,,,0.05,meteohub,2013-06-18 03:49:00,
2013-06-17 23:54:00,63.0,61.9,29.85,WNW,290,0.0,0.0,96,0.00,,,0.05,meteohub,2013-06-18 03:54:00,
2013-06-17 23:59:00,63.0,61.9,29.85,WNW,290,0.0,0.0,96,0.00,,,0.05,meteohub,2013-06-18 03:59:00,